THOR 6

Last updated on Oct. 26, 2020, 5:52 a.m. UTC

1 36033U 09058B   20299.91223455 -.00000022  00000-0  00000-0 0  9995
2 36033   0.0361 108.7783 0001807 108.8730 144.6809  1.00271159 40354
UTC
Height (km)
Latitude
Longitude
Inclination
Orbital Period
UTC large
Height (km)
Speed (km/s)
/
Latitude / Longitude
Inclination (degrees)
Orbital Period (minutes)
Azimuth
Elevation
Range (km)
Doppler Factor
iOS Compass Heading
iOS Angle

Next 30 passes for location: Hong Kong

Rise time Rise Azimuth (degrees) Set time Set Azimuth (degrees) Duration Max altitude (degrees)

No matching passes for this satellites